sat.trackr.live / text

‹ back to catalog

2024-092E

NORAD 59777 · 2024-092E

PAYLOAD ACTIVE UNKNOWN

§ Identity

Operator
Country
CIS
Launch date
2024-05-16
Launch site
PLMSC
Launch vehicle
Mass (kg)
RCS (m²)

External: N2YO · Heavens-Above · Gunter

§ Orbital elements

Epoch: 2026-09-22T14:25:17.387616Z

Period
93.50 min
Inclination
97.6690°
Eccentricity
0.0006906
Mean motion
15.40177377 rev/d
Perigee alt
440.9 km
Apogee alt
450.3 km
Semi-major
6,823.7 km
B*
4.2064e-4
RAAN
42.9701°
Arg perigee
155.7488°
Mean anomaly
204.4084°
Rev number
13,072

§ Raw data

2024-092E1 59777U 24092E   26265.60089569  .00016821  00000+0  42064-3 0  99922 59777  97.6690  42.9701 0006906 155.7488 204.4084 15.40177377130723

JSON: /api/v1/satellites/59777 · /tle

For live sub-satellite position, see the globe view (requires WebGL).

§ Visibility from observer

Set your observer location to see the next 7 days of passes ≥ 10°. The values pass through the URL so the page stays shareable.

No JS? Fill the form by hand. The geolocation button needs JavaScript.

§ Radio — SatNOGS DB

ModeDescriptionDownlinkUplink
FSK Telemetry 401.080 MHz

1 transmitter · refreshed weekly from db.satnogs.org